This demonstration page uses our WeatherBlox Daily Observations layout. Learn more.

Left ArrowRight Arrow

Hourly Observations for January 2, 2022

Temp ( °F °C ) Dew Point ( °F °C ) Humidity (%) Winds ( mph kmh ) Pressure ( in mb ) Visibility ( mi km ) Precip ( " mm )
12:53 am 00:53 Mostly Clear 22 -5.6 13 -10.6 68 68 NNW 13 20 30.24 1024 10 16 0.00 0.00
1:53 am 01:53 Clear 21 -6.1 9 -12.8 59 59 NNW 15 24 30.29 1026 10 16 0.00 0.00
2:53 am 02:53 Clear 20 -6.7 8 -13.3 60 60 NNW 10 17 30.31 1027 10 16 0.00 0.00
3:53 am 03:53 Clear 19 -7.2 9 -12.8 65 65 NNW 6 9 30.33 1027 10 16 0.00 0.00
4:53 am 04:53 Clear 18 -7.8 9 -12.8 68 68 NNW 3 6 30.35 1028 10 16 0.00 0.00
5:53 am 05:53 Clear 18 -7.8 10 -12.2 71 71 NW 5 7 30.37 1028 10 16 0.00 0.00
6:53 am 06:53 Clear 16 -8.9 9 -12.8 74 74 WNW 7 11 30.41 1030 10 16 0.00 0.00
7:53 am 07:53 Clear 15 -9.4 9 -12.8 77 77 Calm 30.43 1031 10 16 0.00 0.00
8:53 am 08:53 Sunny 19 -7.2 12 -11.1 74 74 NNW 3 6 30.45 1031 10 16 0.00 0.00
9:53 am 09:53 Sunny 26 -3.3 11 -11.7 53 53 NNW 5 7 30.49 1032 10 16 0.00 0.00
10:53 am 10:53 Sunny 29 -1.7 11 -11.7 47 47 SW 6 9 30.51 1033 10 16 0.00 0.00
11:53 am 11:53 Sunny 32 0 11 -11.7 41 41 SSW 7 11 30.49 1033 10 16 0.00 0.00
12:53 pm 12:53 Sunny 37 2.8 11 -11.7 34 34 SW 12 19 30.45 1031 10 16 0.00 0.00
1:53 pm 13:53 Sunny 38 3.3 11 -11.7 33 33 SSW 10 17 30.42 1030 10 16 0.00 0.00
2:53 pm 14:53 Sunny 41 5 11 -11.7 29 29 SW 8 13 30.41 1030 10 16 0.00 0.00
3:53 pm 15:53 Sunny 43 6.1 10 -12.2 26 26 SW 9 15 30.40 1030 10 16 0.00 0.00
4:53 pm 16:53 Sunny 43 6.1 10 -12.2 26 26 VRB 5 7 30.40 1029 10 16 0.00 0.00
5:53 pm 17:53 Sunny 41 5 11 -11.7 29 29 SSE 5 7 30.40 1029 10 16 0.00 0.00
6:53 pm 18:53 Clear 39 3.9 11 -11.7 31 31 E 5 7 30.41 1030 10 16 0.00 0.00
7:53 pm 19:53 Clear 36 2.2 12 -11.1 37 37 E 3 6 30.42 1030 10 16 0.00 0.00
8:53 pm 20:53 Clear 32 0 13 -10.6 45 45 Calm 30.44 1031 10 16 0.00 0.00
9:53 pm 21:53 Clear 29 -1.7 13 -10.6 51 51 E 3 6 30.43 1031 10 16 0.00 0.00
10:53 pm 22:53 Clear 25 -3.9 15 -9.4 66 66 NE 5 7 30.44 1031 10 16 0.00 0.00
11:53 pm 23:53 Clear 23 -5 14 -10 68 68 N 5 7 30.44 1031 10 16 0.00 0.00

Powered by AerisWeather